Regional Weather Roundup
Issued by NWS Albany, NY

Home | Current Version | Previous Version | Text Only | Print | Product List | Glossary On
Versions: 1 2 3 4 5 6 7 8 9 10 11 12 13 14 15 16 17 18 19 20 21 22 23 24 25 26 27
000
ASUS41 KALY 230610
RWRALY

NEW YORK STATE HOURLY WEATHER ROUNDUP
NATIONAL WEATHER SERVICE ALBANY NY
200 AM EDT MON APR 23 2018

NOTE: "FAIR" INDICATES FEW OR NO CLOUDS BELOW 12,000 FEET WITH NO
SIGNIFICANT WEATHER AND/OR NO OBSTRUCTIONS TO VISIBILITY.

NYZ032-033-038>043-046>054-057>066-NYZ062>081-082-084-230700-
EAST


CITY           SKY/WX    TMP DP  RH WIND       PRES   REMARKS
ALBANY         FAIR      37  22  54 CALM      30.43R
GLENS FALLS    FAIR      28  26  92 NW3       30.42S
POUGHKEEPSIE   FAIR      34  25  69 CALM      30.40S
NEWBURGH       CLEAR     39  32  75 CALM      30.41R
MONTGOMERY     FAIR      35  27  72 CALM      30.39S
WHITE PLAINS   FAIR      41  28  60 NW3       30.38F
ISLIP          FAIR      42  30  62 SW3       30.40S
NEW YORK CITY  FAIR      49  33  54 S3        30.39F
CENTRAL PARK   FAIR      49  30  48 CALM      30.42S
$$

NYZ005>009-017-018-044>046-055-056-230700-
CENTRAL


CITY           SKY/WX    TMP DP  RH WIND       PRES   REMARKS
FULTON         FAIR      31  25  78 CALM      30.42S
SYRACUSE       FAIR      37  24  59 E3        30.42S
ROME           FAIR      29  22  75 CALM      30.44S
ELMIRA         FAIR      33  26  75 CALM      30.42R
BINGHAMTON     FAIR      41  14  33 NE3       30.39S
MONTICELLO     FAIR      39  17  41 CALM      30.40S
$$

NYZ026>034-041>043-087-230700-
NORTH


CITY           SKY/WX    TMP DP  RH WIND       PRES   REMARKS
WATERTOWN      FAIR      28  25  88 E3        30.42S
FORT DRUM      NOT AVBL
OGDENSBURG     FAIR      31  30  94 CALM      30.42S
MASSENA        FAIR      29  25  85 CALM      30.42S
SARANAC LAKE   FAIR      21  18  88 CALM      30.39S
PLATTSBURGH    FAIR      29  23  78 CALM      30.41S
$$

NYZ001>004-010>016-019>021-085-230700-
WEST


CITY           SKY/WX    TMP DP  RH WIND       PRES   REMARKS
NIAGARA FALLS  FAIR      41  24  51 E5        30.38S
BUFFALO        FAIR      44  23  43 SE7       30.38S
DUNKIRK        FAIR      46  23  40 E10       30.35F
JAMESTOWN      FAIR      46  19  34 E8        30.35S
WELLSVILLE     FAIR      42  18  37 SE5       30.40S
ROCHESTER      FAIR      41  23  48 CALM      30.41R
PENN YAN       FAIR      33  22  63 CALM      30.41S
$$

             KEY
       WCI = WIND CHILL INDEX
       VSB = VISIBILITY
       HX  = HEAT INDEX
$$




USA.gov is the U.S. government's official web portal to all federal, state and local government web resources and services.